Showing default

SONATE-2, 59112

Orbit data source: Space-Track

SONATE-2, 59112 is a payload satellite owned by U Wurzburg (DE) in SSO that was launched on Mon, 04 Mar 2024 UTC via an FALCON 9 launch vehicle from the Air Force Western Test Range (AFWTR). Payload-class satellites include a variety of spacecraft equipped with specific instruments for various scientific and technological missions. These include communications satellites like Starlink; space stations such as the ISS; scientific satellites like the Hubble; Earth observation satellites from companies like Planet Labs, Umbra, and HawkEye 360; GPS; miniature CubeSats for education and research; and military/defense satellites.

Loading next visibility...
Identifier
59112, 2024-043Q
Orbit
SSO
Country
Flag of DEDE / GER
Related business
Manufacturer
U Wurzburg
Mission
Operational Amateur Technology
Bus & Motor
CUBESAT 6U, Unknown motor
Mass
~12 kg wet, ~12 kg dry
Launch date (UTC)
2024-03-04 (2 years ago)
Launch vehicle
FALCON 9
Launch site
Air Force Western Test Range (AFWTR)
Object type
Payload
Rocket body
Debris
Shape & HBR
Box + 2 Pan, 0.3 m
Radar Cross Section
0.051 m², Medium (>0.1 m² and < 1m²)

Expand to show TLE details & history
Last TLE update: 2 days ago

TLE from 2 days ago
0 SONATE-2
1 59112U 24043Q   26171.41218347  .00036201  00000-0  46629-3 0  9990
2 59112  97.5542 322.0062 0007216 184.8807 175.2380 15.58929844128393
Epoch: 2026-06-20T09:53Z
TLE epoch observation values (Epoch: 2026-06-20T09:53:32.651Z)
Latitude
-0.00001°
Longitude
-95.00702°
Altitude
398.76 km
Speed
7.668 km/s
True Right ascension
21h 28m 01s
True Declination
0° 00' 00"
Sunlit
Object was in full shadow at epoch
Visualization orbit readout
Latitude
Unknown
Longitude
Unknown
Altitude
Unknown
Speed
Unknown
Apparent Right ascension
Unknown
Apparent Declination
Unknown
Sunlit
N/A
Visualization observer readout
Local Sidereal Time
21:38:56
Azimuth
Unknown
Elevation
Unknown
Doppler factor
Unknown
Orbital elements
Apogee altitude
392.556 km
Perigee altitude
382.791 km
Semi-major axis
6,765.811 km
Eccentricity
0.00072
Inclination
97.5542°
RAAN
322.0062°
Arg. of periapsis
184.8807°
True anomaly
175.24486°
Mean anomaly
175.238°
Eccentric anomaly
175.24143°
Mean motion
3.89999 °/min
Orbital period
92.31 mins
BSTAR
0.00046629
Loading maneuver chart data...
Computing Atmospheric mass density...
Loading historical data...
Loading historical data...
Loading historical data...
Loading historical data...
Loading historical data...
Loading historical data...
Loading historical data...

Documentation

Showing up to 5 results
|